sat.trackr.live / text

‹ back to catalog

STARLINK-33711

NORAD 63404 · 2025-065F

PAYLOAD ACTIVE UNKNOWN

§ Identity

Operator
Country
US
Launch date
2025-03-31
Launch site
AFETR
Launch vehicle
Mass (kg)
RCS (m²)

Purposes: comms

External: N2YO · Heavens-Above · Gunter

§ Orbital elements

Epoch: 2026-05-25T01:15:05.760000Z

Period
94.27 min
Inclination
42.9999°
Eccentricity
0.0000974
Mean motion
15.27593335 rev/d
Perigee alt
482.3 km
Apogee alt
483.7 km
Semi-major
6,861.1 km
B*
5.3050e-4
RAAN
35.3927°
Arg perigee
275.1598°
Mean anomaly
84.9142°
Rev number
6,452

§ Raw data

STARLINK-337111 63404U 25065F   26145.05215000  .00014371  00000+0  53050-3 0  99972 63404  42.9999  35.3927 0000974 275.1598  84.9142 15.27593335 64525

JSON: /api/v1/satellites/63404 · /tle

For live sub-satellite position, see the globe view (requires WebGL).

§ Visibility from observer

Set your observer location to see the next 7 days of passes ≥ 10°. The values pass through the URL so the page stays shareable.

No JS? Fill the form by hand. The geolocation button needs JavaScript.